N800C KENV-KSLC

Flight info

Callsign N800C
Flight time N/A
Altitude 10000
Route DCT VFR
Aircraft C310/L-SDFGR/C

Departure

Time 2026-04-19 23:45
Airport Wendover Airport (KENV)

Arrival

Time N/A
Airport Salt Lake City International Airport (KSLC)
Time Latitude Longitude Altitude Speed Heading
2026-04-19 23:37 40.72740 -114.03900 4234 ft 0 kts 270°
2026-04-19 23:43 40.72716 -114.03920 4233 ft 11 kts 180°
2026-04-19 23:43 40.72661 -114.03957 4231 ft 10 kts 265°
2026-04-19 23:43 40.72665 -114.04049 4230 ft 10 kts 298°
2026-04-19 23:43 40.72678 -114.04118 4230 ft 12 kts 269°
2026-04-19 23:44 40.72652 -114.04235 4228 ft 12 kts 223°
2026-04-19 23:44 40.72584 -114.04255 4228 ft 16 kts 134°
2026-04-19 23:44 40.72368 -114.03966 4231 ft 74 kts 136°
2026-04-19 23:44 40.71903 -114.03365 4302 ft 106 kts 134°
2026-04-19 23:45 40.71348 -114.02617 4515 ft 123 kts 128°
2026-04-19 23:45 40.70916 -114.01610 4795 ft 129 kts 110°
2026-04-19 23:45 40.70678 -114.00443 5011 ft 139 kts 103°
2026-04-19 23:45 40.70437 -113.99151 5136 ft 148 kts 102°
2026-04-19 23:46 40.70208 -113.97816 5316 ft 148 kts 102°
2026-04-19 23:46 40.70001 -113.96519 5558 ft 145 kts 102°
2026-04-19 23:46 40.69839 -113.95221 5819 ft 143 kts 98°
2026-04-19 23:46 40.69723 -113.93925 6072 ft 141 kts 97°
2026-04-19 23:47 40.69633 -113.92642 6333 ft 140 kts 97°
2026-04-19 23:47 40.69559 -113.91383 6564 ft 136 kts 97°
2026-04-19 23:47 40.69496 -113.90164 6782 ft 131 kts 97°
2026-04-19 23:47 40.69444 -113.88992 7009 ft 125 kts 96°
2026-04-19 23:48 40.69400 -113.87861 7259 ft 122 kts 96°
2026-04-19 23:48 40.69362 -113.86767 7490 ft 117 kts 96°
2026-04-19 23:48 40.69335 -113.85730 7705 ft 111 kts 96°
2026-04-19 23:48 40.69315 -113.84727 7874 ft 108 kts 96°
2026-04-19 23:49 40.69293 -113.83741 8024 ft 107 kts 96°
2026-04-19 23:49 40.69271 -113.82754 8155 ft 109 kts 96°
2026-04-19 23:49 40.69249 -113.81752 8278 ft 109 kts 96°
2026-04-19 23:49 40.69234 -113.80756 8395 ft 108 kts 96°
2026-04-19 23:50 40.69221 -113.79770 8450 ft 113 kts 96°
2026-04-19 23:50 40.69198 -113.78638 8487 ft 133 kts 97°
2026-04-19 23:50 40.69157 -113.77356 8572 ft 146 kts 97°
2026-04-19 23:50 40.69157 -113.75968 8635 ft 156 kts 93°
2026-04-19 23:51 40.69187 -113.74504 8689 ft 164 kts 92°
2026-04-19 23:51 40.69229 -113.72972 8757 ft 170 kts 92°
2026-04-19 23:51 40.69257 -113.71397 8823 ft 173 kts 99°
2026-04-19 23:51 40.68873 -113.69920 8889 ft 171 kts 117°
2026-04-19 23:52 40.68363 -113.68490 8981 ft 172 kts 120°
2026-04-19 23:52 40.67828 -113.67081 9094 ft 171 kts 121°
2026-04-19 23:52 40.67287 -113.65688 9215 ft 171 kts 121°
2026-04-19 23:52 40.66739 -113.64299 9341 ft 170 kts 121°
2026-04-19 23:53 40.66192 -113.62915 9464 ft 170 kts 121°
2026-04-19 23:53 40.65651 -113.61546 9581 ft 170 kts 121°
2026-04-19 23:53 40.65104 -113.60165 9709 ft 170 kts 121°
2026-04-19 23:53 40.64558 -113.58785 9831 ft 170 kts 121°
2026-04-19 23:54 40.64012 -113.57397 9899 ft 172 kts 121°
2026-04-19 23:54 40.63453 -113.55979 9932 ft 176 kts 121°
2026-04-19 23:54 40.62880 -113.54528 9938 ft 180 kts 121°
2026-04-19 23:54 40.62299 -113.53061 9946 ft 182 kts 121°
2026-04-19 23:55 40.61709 -113.51578 9947 ft 183 kts 121°
2026-04-19 23:55 40.61118 -113.50092 9950 ft 184 kts 121°
2026-04-19 23:55 40.60522 -113.48597 9939 ft 185 kts 121°
2026-04-19 23:55 40.59895 -113.47124 9937 ft 184 kts 124°
2026-04-19 23:56 40.59248 -113.45692 9939 ft 184 kts 124°
2026-04-19 23:56 40.58585 -113.44253 9935 ft 184 kts 125°
2026-04-19 23:56 40.57917 -113.42818 9928 ft 184 kts 125°
2026-04-19 23:56 40.57246 -113.41387 9933 ft 184 kts 126°
2026-04-19 23:57 40.56591 -113.39940 9940 ft 185 kts 126°
2026-04-19 23:57 40.55936 -113.38478 9934 ft 185 kts 125°
2026-04-19 23:57 40.55258 -113.37041 9934 ft 185 kts 128°
2026-04-19 23:57 40.54527 -113.35653 9924 ft 184 kts 130°
2026-04-19 23:58 40.53690 -113.34387 9923 ft 182 kts 138°
2026-04-19 23:58 40.52795 -113.33200 9929 ft 182 kts 140°
2026-04-19 23:58 40.51887 -113.32038 9927 ft 182 kts 141°
2026-04-19 23:58 40.50973 -113.30883 9925 ft 182 kts 141°
2026-04-19 23:59 40.50065 -113.29745 9923 ft 182 kts 141°
2026-04-19 23:59 40.49147 -113.28600 9926 ft 182 kts 141°
2026-04-19 23:59 40.48228 -113.27451 9928 ft 182 kts 141°
2026-04-19 23:59 40.47309 -113.26305 9926 ft 182 kts 141°
2026-04-20 00:00 40.46390 -113.25161 9927 ft 182 kts 141°
2026-04-20 00:00 40.45472 -113.24016 9927 ft 182 kts 141°
2026-04-20 00:00 40.44553 -113.22870 9912 ft 182 kts 141°
2026-04-20 00:00 40.43635 -113.21724 9916 ft 182 kts 141°
2026-04-20 00:01 40.42718 -113.20579 9914 ft 182 kts 141°
2026-04-20 00:01 40.41796 -113.19433 9915 ft 182 kts 141°
2026-04-20 00:01 40.39954 -113.17145 9911 ft 182 kts 141°
2026-04-20 00:02 40.39033 -113.16000 9911 ft 182 kts 141°
2026-04-20 00:02 40.38112 -113.14856 9906 ft 183 kts 141°
2026-04-20 00:02 40.37199 -113.13724 9909 ft 183 kts 141°
2026-04-20 00:02 40.36276 -113.12577 9906 ft 183 kts 141°
2026-04-20 00:03 40.35351 -113.11428 9903 ft 183 kts 141°
2026-04-20 00:03 40.34423 -113.10286 9893 ft 182 kts 141°
2026-04-20 00:03 40.33484 -113.09180 9892 ft 181 kts 141°
2026-04-20 00:03 40.32553 -113.08079 9896 ft 180 kts 141°
2026-04-20 00:04 40.31626 -113.06978 9903 ft 180 kts 141°
2026-04-20 00:04 40.30690 -113.05875 9907 ft 181 kts 141°
2026-04-20 00:04 40.29750 -113.04769 9897 ft 181 kts 141°
2026-04-20 00:04 40.28815 -113.03663 9897 ft 181 kts 141°
2026-04-20 00:05 40.27880 -113.02558 9897 ft 181 kts 141°
2026-04-20 00:05 40.26955 -113.01447 9892 ft 181 kts 136°
2026-04-20 00:05 40.26438 -112.99930 9893 ft 187 kts 107°
2026-04-20 00:05 40.26196 -112.98258 9888 ft 188 kts 103°
2026-04-20 00:06 40.26011 -112.96552 9903 ft 190 kts 102°
2026-04-20 00:06 40.25841 -112.94835 9907 ft 191 kts 101°
2026-04-20 00:06 40.25673 -112.93103 9906 ft 192 kts 101°
2026-04-20 00:06 40.25511 -112.91390 9902 ft 193 kts 101°
2026-04-20 00:07 40.25346 -112.89625 9905 ft 193 kts 101°
2026-04-20 00:07 40.25182 -112.87875 9908 ft 194 kts 101°
2026-04-20 00:07 40.25020 -112.86140 9904 ft 195 kts 101°
2026-04-20 00:07 40.24851 -112.84361 9917 ft 195 kts 101°
2026-04-20 00:08 40.24688 -112.82599 9918 ft 195 kts 101°
2026-04-20 00:08 40.24527 -112.80836 9917 ft 195 kts 101°
2026-04-20 00:08 40.24368 -112.79067 9915 ft 196 kts 101°
2026-04-20 00:08 40.24204 -112.77325 9909 ft 194 kts 101°
2026-04-20 00:09 40.24037 -112.75575 9911 ft 193 kts 100°
2026-04-20 00:09 40.23872 -112.73837 9909 ft 192 kts 101°
2026-04-20 00:09 40.23715 -112.72109 9910 ft 191 kts 101°
2026-04-20 00:09 40.23553 -112.70386 9920 ft 190 kts 102°
2026-04-20 00:10 40.23394 -112.68673 9921 ft 190 kts 101°
2026-04-20 00:10 40.23233 -112.66958 9923 ft 190 kts 101°
2026-04-20 00:10 40.23067 -112.65245 9921 ft 190 kts 101°
2026-04-20 00:10 40.22908 -112.63531 9920 ft 190 kts 101°
2026-04-20 00:11 40.22757 -112.61820 9923 ft 189 kts 101°
2026-04-20 00:11 40.22604 -112.60110 9925 ft 189 kts 100°
2026-04-20 00:11 40.22435 -112.58397 9935 ft 190 kts 101°
2026-04-20 00:11 40.22274 -112.56679 9940 ft 191 kts 100°
2026-04-20 00:12 40.22113 -112.54964 9927 ft 190 kts 101°
2026-04-20 00:12 40.21948 -112.53245 9935 ft 191 kts 101°
2026-04-20 00:12 40.21779 -112.51516 9936 ft 192 kts 101°
2026-04-20 00:12 40.21611 -112.49783 9934 ft 192 kts 101°
2026-04-20 00:13 40.21443 -112.48075 9927 ft 191 kts 100°
2026-04-20 00:13 40.21281 -112.46353 9922 ft 190 kts 101°
2026-04-20 00:13 40.21125 -112.44634 9913 ft 190 kts 101°
2026-04-20 00:13 40.20970 -112.42913 9929 ft 189 kts 100°
2026-04-20 00:14 40.20813 -112.41202 9929 ft 190 kts 100°
2026-04-20 00:14 40.20646 -112.39494 9926 ft 189 kts 101°
2026-04-20 00:14 40.20475 -112.37787 9931 ft 189 kts 102°
2026-04-20 00:14 40.20310 -112.36082 9929 ft 189 kts 101°
2026-04-20 00:15 40.20153 -112.34377 9931 ft 189 kts 101°
2026-04-20 00:15 40.19999 -112.32671 9935 ft 189 kts 101°
2026-04-20 00:15 40.19888 -112.30950 9930 ft 190 kts 95°
2026-04-20 00:15 40.19889 -112.29224 9926 ft 190 kts 92°
2026-04-20 00:16 40.19921 -112.27494 9932 ft 190 kts 91°
2026-04-20 00:16 40.19962 -112.25760 9939 ft 191 kts 91°
2026-04-20 00:16 40.20007 -112.24028 9953 ft 191 kts 91°
2026-04-20 00:16 40.20055 -112.22291 9965 ft 191 kts 91°
2026-04-20 00:17 40.20103 -112.20551 9963 ft 192 kts 91°
2026-04-20 00:17 40.20152 -112.18803 9962 ft 192 kts 91°
2026-04-20 00:17 40.20202 -112.17053 9967 ft 193 kts 91°
2026-04-20 00:17 40.20253 -112.15298 9969 ft 193 kts 90°
2026-04-20 00:18 40.20307 -112.13538 9968 ft 194 kts 91°
2026-04-20 00:18 40.20359 -112.11778 9967 ft 194 kts 91°
2026-04-20 00:18 40.20409 -112.10012 9974 ft 194 kts 91°
2026-04-20 00:18 40.20458 -112.08248 9981 ft 194 kts 91°
2026-04-20 00:19 40.20507 -112.06480 9988 ft 195 kts 91°
2026-04-20 00:19 40.20555 -112.04732 9995 ft 195 kts 91°
2026-04-20 00:19 40.20604 -112.02961 9998 ft 195 kts 91°
2026-04-20 00:19 40.20653 -112.01188 10000 ft 195 kts 91°
2026-04-20 00:20 40.20703 -111.99413 10006 ft 195 kts 91°
2026-04-20 00:20 40.20753 -111.97634 10012 ft 196 kts 91°
2026-04-20 00:20 40.20802 -111.95851 10015 ft 196 kts 91°
2026-04-20 00:20 40.20851 -111.94062 10021 ft 197 kts 90°
2026-04-20 00:21 40.20900 -111.92268 10019 ft 197 kts 91°
2026-04-20 00:21 40.20951 -111.90474 10025 ft 198 kts 91°
2026-04-20 00:21 40.21001 -111.88672 10027 ft 198 kts 91°
2026-04-20 00:21 40.21064 -111.86876 10025 ft 198 kts 86°
2026-04-20 00:22 40.21663 -111.85264 10025 ft 202 kts 46°
2026-04-20 00:22 40.22886 -111.84445 10028 ft 199 kts
2026-04-20 00:22 40.24259 -111.84427 10035 ft 197 kts 354°
2026-04-20 00:22 40.25621 -111.84555 10034 ft 196 kts 352°
2026-04-20 00:23 40.26983 -111.84725 9962 ft 197 kts 351°
2026-04-20 00:23 40.28298 -111.84878 9684 ft 180 kts 352°
2026-04-20 00:23 40.29492 -111.85029 9275 ft 164 kts 351°
2026-04-20 00:23 40.30611 -111.85201 8790 ft 162 kts 349°
2026-04-20 00:24 40.31694 -111.85458 8501 ft 153 kts 345°
2026-04-20 00:24 40.32692 -111.85802 8247 ft 146 kts 339°
2026-04-20 00:24 40.33656 -111.86240 8059 ft 145 kts 337°